Weather History for KCOQ - May, 2013

Change the Weather History Date:

Thursday, May 23, 2013

  Actual Average Record
Temperature  
Mean Temperature 47 °F -  
Max Temperature 57 °F 60 °F 77 °F (2006)
Min Temperature 35 °F 38 °F 30 °F (2003)
Degree Days  
Heating Degree Days 18    
Moisture  
Dew Point 27 °F    
Average Humidity 49    
Maximum Humidity 75    
Minimum Humidity 26    
Precipitation  
Precipitation 0.00 in - - ()
Sea Level Pressure  
Sea Level Pressure 30.26 in    
Wind  
Wind Speed 8 mph (East)    
Max Wind Speed 12 mph    
Max Gust Speed 18 mph    
Visibility 10 miles    
Events      
Averages and records for this station are not official NWS values.
T = Trace of Precipitation, MM = Missing Value Source: NWS Daily Summary

Daily Weather History Graph

Daily Weather History Graph

Search for Another Location

Airport or City:

Trip Planner

Search our weather history database for the weather conditions in past years. The results will help you decide how hot, cold, wet, or windy it might be!

Date:

Astronomy

May. 23, 2013 Rise Set
Actual Time 5:26 AM CDT 8:47 PM CDT
Civil Twilight 4:49 AM CDT 9:24 PM CDT
Nautical Twilight 4:01 AM CDT 10:13 PM CDT
Astronomical Twilight 2:59 AM CDT 11:15 PM CDT
Moon 7:16 PM CDT (5/23) 4:18 AM CDT (5/23)
Length of Visible Light 16h 34m
Length of Day
15h 20m
Waxing Gibbous, 97% of the Moon is Illuminated
May 23
Waxing Gibbous
May 24
Full
May 31
Last Quarter
Jun 8
New
Jun 16
First Quarter

Hourly Weather History & Observations

Time (CDT) Temp. Windchill Dew Point Humidity Pressure Visibility Wind Dir Wind Speed Gust Speed Precip Events Conditions
12:15 AM 46.4 °F 41.9 °F 33.8 °F 62% 30.09 in 10.0 mi East 9.2 mph 17.3 mph N/A   Mostly Cloudy
12:36 AM 46.4 °F 41.9 °F 35.6 °F 66% 30.10 in 10.0 mi East 9.2 mph 17.3 mph N/A   Scattered Clouds
12:56 AM 44.6 °F 39.7 °F 33.8 °F 66% 30.10 in 10.0 mi ENE 9.2 mph 17.3 mph N/A   Mostly Cloudy
1:15 AM 44.6 °F 38.8 °F 33.8 °F 66% 30.11 in 10.0 mi ENE 11.5 mph - N/A   Scattered Clouds
1:36 AM 44.6 °F 39.7 °F 33.8 °F 66% 30.11 in 10.0 mi ENE 9.2 mph 16.1 mph N/A   Mostly Cloudy
1:55 AM 44.6 °F 38.8 °F 33.8 °F 66% 30.12 in 10.0 mi ENE 11.5 mph 18.4 mph N/A   Overcast
2:16 AM 44.6 °F 40.2 °F 32.0 °F 61% 30.13 in 10.0 mi ENE 8.1 mph - N/A   Overcast
2:36 AM 44.6 °F 39.2 °F 32.0 °F 61% 30.13 in 10.0 mi ENE 10.4 mph - N/A   Overcast
2:55 AM 42.8 °F 37.5 °F 30.2 °F 61% 30.14 in 10.0 mi ENE 9.2 mph - N/A   Scattered Clouds
3:16 AM 42.8 °F 37.0 °F 30.2 °F 61% 30.15 in 10.0 mi NE 10.4 mph 16.1 mph N/A   Clear
3:36 AM 41.0 °F 35.2 °F 30.2 °F 65% 30.16 in 10.0 mi NE 9.2 mph - N/A   Clear
3:55 AM 39.2 °F 34.2 °F 30.2 °F 70% 30.17 in 10.0 mi NE 6.9 mph - N/A   Clear
4:16 AM 39.2 °F 34.2 °F 30.2 °F 70% 30.18 in 10.0 mi NE 6.9 mph - N/A   Clear
4:36 AM 39.2 °F 35.0 °F 32.0 °F 75% 30.19 in 10.0 mi NNE 5.8 mph - N/A   Clear
4:56 AM 39.2 °F 35.0 °F 32.0 °F 75% 30.20 in 10.0 mi NNE 5.8 mph - N/A   Clear
5:16 AM 37.4 °F 32.8 °F 30.2 °F 75% 30.21 in 10.0 mi NE 5.8 mph - N/A   Clear
5:36 AM 37.4 °F 32.8 °F 30.2 °F 75% 30.22 in 10.0 mi NE 5.8 mph - N/A   Clear
5:55 AM 37.4 °F 32.1 °F 30.2 °F 75% 30.22 in 10.0 mi NE 6.9 mph - N/A   Clear
6:16 AM 39.2 °F 34.2 °F 30.2 °F 70% 30.23 in 10.0 mi NE 6.9 mph - N/A   Clear
6:35 AM 39.2 °F 35.0 °F 30.2 °F 70% 30.24 in 10.0 mi NE 5.8 mph - N/A   Clear
6:56 AM 41.0 °F 37.1 °F 32.0 °F 70% 30.25 in 10.0 mi NE 5.8 mph - N/A   Clear
7:16 AM 41.0 °F 36.4 °F 32.0 °F 70% 30.25 in 10.0 mi NE 6.9 mph - N/A   Clear
7:36 AM 42.8 °F 37.5 °F 30.2 °F 61% 30.26 in 10.0 mi NE 9.2 mph - N/A   Clear
7:56 AM 42.8 °F 37.5 °F 28.4 °F 57% 30.26 in 10.0 mi NE 9.2 mph - N/A   Clear
8:16 AM 44.6 °F 40.2 °F 26.6 °F 49% 30.27 in 10.0 mi NE 8.1 mph - N/A   Clear
8:36 AM 44.6 °F 38.8 °F 24.8 °F 46% 30.28 in 10.0 mi ENE 11.5 mph - N/A   Clear
8:56 AM 44.6 °F 40.2 °F 24.8 °F 46% 30.29 in 10.0 mi NE 8.1 mph - N/A   Clear
9:16 AM 44.6 °F 42.2 °F 24.8 °F 46% 30.29 in 10.0 mi NNE 4.6 mph - N/A   Clear
9:36 AM 46.4 °F 44.3 °F 24.8 °F 43% 30.30 in 10.0 mi NE 4.6 mph - N/A   Clear
9:55 AM 48.2 °F - 23.0 °F 37% 30.29 in 10.0 mi East 9.2 mph - N/A   Clear
10:16 AM 48.2 °F - 21.2 °F 34% 30.29 in 10.0 mi North 6.9 mph - N/A   Clear
10:36 AM 48.2 °F - 23.0 °F 37% 30.29 in 10.0 mi East 9.2 mph - N/A   Clear
10:55 AM 48.2 °F - 26.6 °F 43% 30.29 in 10.0 mi East 6.9 mph - N/A   Clear
11:16 AM 48.2 °F - 26.6 °F 43% 30.30 in 10.0 mi East 4.6 mph - N/A   Clear
11:36 AM 48.2 °F - 26.6 °F 43% 30.30 in 10.0 mi ESE 4.6 mph - N/A   Clear
11:55 AM 50.0 °F - 26.6 °F 40% 30.30 in 10.0 mi SE 4.6 mph - N/A   Clear
12:16 PM 51.8 °F - 26.6 °F 38% 30.30 in 10.0 mi ENE 6.9 mph - N/A   Clear
12:36 PM 51.8 °F - 28.4 °F 41% 30.30 in 10.0 mi East 5.8 mph - N/A   Clear
12:55 PM 51.8 °F - 26.6 °F 38% 30.30 in 10.0 mi SSE 5.8 mph - N/A   Clear
1:16 PM 53.6 °F - 28.4 °F 38% 30.30 in 10.0 mi ESE 5.8 mph - N/A   Clear
1:36 PM 55.4 °F - 28.4 °F 36% 30.30 in 10.0 mi ESE 10.4 mph - N/A   Clear
1:56 PM 55.4 °F - 28.4 °F 36% 30.30 in 10.0 mi East 8.1 mph - N/A   Clear
2:15 PM 55.4 °F - 26.6 °F 33% 30.30 in 10.0 mi SE 5.8 mph - N/A   Clear
2:36 PM 55.4 °F - 28.4 °F 36% 30.30 in 10.0 mi ESE 6.9 mph - N/A   Clear
2:56 PM 55.4 °F - 28.4 °F 36% 30.30 in 10.0 mi East 9.2 mph - N/A   Clear
3:15 PM 55.4 °F - 26.6 °F 33% 30.30 in 10.0 mi East 8.1 mph - N/A   Clear
3:36 PM 57.2 °F - 28.4 °F 33% 30.30 in 10.0 mi East 5.8 mph - N/A   Clear
3:56 PM 55.4 °F - 26.6 °F 33% 30.30 in 10.0 mi ESE 8.1 mph - N/A   Clear
4:15 PM 57.2 °F - 26.6 °F 31% 30.30 in 10.0 mi ESE 8.1 mph - N/A   Clear
4:36 PM 55.4 °F - 24.8 °F 31% 30.29 in 10.0 mi East 8.1 mph - N/A   Clear
4:56 PM 57.2 °F - 24.8 °F 29% 30.29 in 10.0 mi East 8.1 mph - N/A   Clear
5:16 PM 55.4 °F - 23.0 °F 29% 30.30 in 10.0 mi East 9.2 mph - N/A   Clear
5:36 PM 55.4 °F - 21.2 °F 26% 30.30 in 10.0 mi ESE 8.1 mph - N/A   Clear
5:56 PM 55.4 °F - 21.2 °F 26% 30.30 in 10.0 mi East 9.2 mph - N/A   Clear
6:16 PM 55.4 °F - 21.2 °F 26% 30.30 in 10.0 mi East 6.9 mph - N/A   Clear
6:36 PM 55.4 °F - 21.2 °F 26% 30.30 in 10.0 mi ESE 6.9 mph - N/A   Clear
6:56 PM 53.6 °F - 19.4 °F 26% 30.30 in 10.0 mi ESE 8.1 mph - N/A   Clear
7:16 PM 53.6 °F - 19.4 °F 26% 30.30 in 10.0 mi East 8.1 mph - N/A   Clear
7:36 PM 53.6 °F - 19.4 °F 26% 30.30 in 10.0 mi East 9.2 mph - N/A   Clear
7:56 PM 53.6 °F - 19.4 °F 26% 30.31 in 10.0 mi East 5.8 mph - N/A   Clear
8:15 PM 51.8 °F - 21.2 °F 30% 30.30 in 10.0 mi East 5.8 mph - N/A   Clear
8:36 PM 50.0 °F - 21.2 °F 32% 30.31 in 10.0 mi ESE 3.5 mph - N/A   Clear
8:56 PM 48.2 °F - 23.0 °F 37% 30.31 in 10.0 mi East 4.6 mph - N/A   Clear
9:15 PM 46.4 °F - 24.8 °F 43% 30.31 in 10.0 mi Calm Calm - N/A   Clear
9:36 PM 44.6 °F 43.1 °F 26.6 °F 49% 30.32 in 10.0 mi ESE 3.5 mph - N/A   Clear
9:56 PM 42.8 °F 40.1 °F 28.4 °F 57% 30.33 in 10.0 mi ESE 4.6 mph - N/A   Clear
10:15 PM 41.0 °F 39.0 °F 28.4 °F 61% 30.33 in 10.0 mi East 3.5 mph - N/A   Clear
10:36 PM 39.2 °F 37.0 °F 28.4 °F 65% 30.33 in 10.0 mi East 3.5 mph - N/A   Clear
10:56 PM 39.2 °F - 26.6 °F 61% 30.34 in 10.0 mi Calm Calm - N/A   Clear
11:15 PM 37.4 °F - 26.6 °F 65% 30.34 in 10.0 mi Calm Calm - N/A   Clear
11:36 PM 37.4 °F - 28.4 °F 70% 30.35 in 10.0 mi Calm Calm - N/A   Clear
11:56 PM 35.6 °F - 26.6 °F 70% 30.35 in 10.0 mi Calm Calm - N/A   Clear